Regional Weather Roundup
Issued by NWS

Home | Current Version | Previous Version | Graphics & Text | Print | Product List | Glossary On
Versions: 1 2 3 4 5 6 7 8 9 10 11 12 13 14 15 16 17 18 19 20 21 22 23 24 25 26 27 28 29 30 31 32 33 34 35 36 37 38 39 40 41 42 43 44 45 46 47 48 49 50
000
ASUS43 KLSX 232110
RWRMO

WEATHER SUMMARY FOR MISSOURI
NATIONAL WEATHER SERVICE SPRINGFIELD MO
300 PM CST THU FEB 23 2017

NOTE: "FAIR" INDICATES FEW OR NO CLOUDS BELOW 12,000 FEET WITH NO
       SIGNIFICANT WEATHER AND/OR OBSTRUCTIONS TO VISIBILITY.
       CURRENT SKY AND/OR WEATHER CONDITIONS ARE NOT AVAILABLE FOR
       CHILLICOTHE AND FARMINGTON.

MOZ001>031-035>038-043-044-053-054-232200-
...NORTHERN AND WESTERN MISSOURI...

CITY           SKY/WX    TMP DP  RH WIND       PRES   REMARKS
KANSAS CTY INT CLOUDY    51  43  74 E15       29.47F
KANSAS C DTWN  CLOUDY    55  44  66 NE12      29.46F
LEE`S SUMMIT   CLOUDY    56  46  69 E12       29.46F
ST JOSEPH      PTSUNNY   56  46  69 SE14      29.49S
CHILLICOTHE      N/A     49  43  80 E12G22    29.52F
KIRKSVILLE     CLOUDY    49  44  83 E14       29.56F

$$
MOZ066>068-077>081-088>096-101>105-232200-
...SOUTHWEST MISSOURI...

CITY           SKY/WX    TMP DP  RH WIND       PRES   REMARKS
SPRINGFIELD    SUNNY     78  50  37 S21       29.44F
JOPLIN         MOSUNNY   82  47  29 SW18G29   29.41F
BRANSON        PTSUNNY   77  48  36 S12G18    29.51F

$$
MOZ032>034-039>042-045>050-055>058-069>072-232200-
...CENTRAL MISSOURI...

CITY           SKY/WX    TMP DP  RH WIND       PRES   REMARKS
COLUMBIA       MOSUNNY   65  56  72 E15       29.49F
JEFFERSON CITY MOSUNNY   69  56  62 E14       29.48F
ROLLA          SUNNY     67  55  65 SE18G29   29.52F
SEDALIA        PTSUNNY   68  54  60 E16G23    29.48F
WHITEMAN AFB   PTSUNNY   66  56  70 NE8       29.46F
WARRENSBURG    CLOUDY    63  50  63 NE16G23   29.45F
OSAGE BEACH    MOSUNNY   75  54  47 SE10G16   29.47F

$$
MOZ051-052-059>065-232200-
...EAST CENTRAL MISSOURI...

CITY           SKY/WX    TMP DP  RH WIND       PRES   REMARKS
ST LOUIS INTL  CLOUDY    71  55  56 SE17G23   29.59F
SPIRIT OF STL  MOSUNNY   74  56  53 SE12G25   29.54F
ST CHARLES     CLOUDY    64  57  78 NE16G23   29.58F

$$
MOZ072>076-082>087-097>100-106>115-232200-
...SOUTH CENTRAL AND SOUTHEAST MISSOURI...

CITY           SKY/WX    TMP DP  RH WIND       PRES   REMARKS
CAPE GIRARDEAU MOSUNNY   71  56  58 S17G25    29.65F
FARMINGTON     PTSUNNY   69  58  67 S15G21    29.62F
POPLAR BLUFF   MOSUNNY   71  58  63 S14       29.63F
WEST PLAINS    SUNNY     76  53  44 S15G24    29.58F

$$



USA.gov is the U.S. government's official web portal to all federal, state and local government web resources and services.